Flag for U.S.A. Weather past 2 weeks in Compton, California, U.S.A.

Now
61 °F

Sunny.


Feels Like: 61 °F
Forecast: 40 / 61 °F
Wind: 8 mph from West

Location: Hawthorne Municipal Airport

Current Time: Dec 28, 2014 at 3:01:01 PM

Latest Report: Dec 28, 2014 at 1:53 PM


Visibility: 10 mi

Pressure: 30.18 "Hg

Humidity: 38%

Dew point: 35 °F

Location of ComptonLocation

Historic Weather in Compton — Graph

°F

Compton temperature yesterday

Maximum temperature yesterday: 61 °F (at 11:53 AM)
Minimum temperature yesterday: 42 °F (at 4:53 AM)
Average temperature yesterday: 52 °F

Past Weeks' High & Low Weather Summary

 TemperatureHumidityPressure
High83 °F (Dec 23, 12:53 PM)93% (Dec 16, 5:49 AM)30.35 "Hg (Dec 16, 5:49 AM)
Low42 °F (Dec 27, 4:53 AM)12% (Dec 26, 12:53 PM)29.79 "Hg (Dec 25, 12:53 AM)
Average59 °F60%30.08 "Hg
* Reported Dec 13 1:53 PM — Dec 28 1:53 PM, Compton, Weather by CustomWeather, © 2014

Note: Actual official high and low records may vary slightly from our data, if they occured in-between our weather recording intervals... More about our weather records

Advertising

Compton weather history for previous 24 hours

 ConditionsComfort  
Time TempWeatherWind HumidityBarometerVisibility
1:53 PM
Dec 28
61 °FSunny.8 mph38%30.18 "Hg10 mi
12:53 PM62 °FSunny.3 mph24%30.20 "Hg10 mi
11:53 AM60 °FSunny.3 mph23%30.23 "Hg10 mi
10:53 AM58 °FSunny.No wind24%30.27 "Hg10 mi
9:53 AM55 °FSunny.No wind31%30.28 "Hg10 mi
8:53 AM51 °FSunny.No wind35%30.28 "Hg10 mi
7:53 AM48 °FSunny.No wind41%30.27 "Hg10 mi
6:53 AM46 °FClear.No wind44%30.26 "Hg10 mi
5:53 AM46 °FClear.No wind42%30.25 "Hg10 mi
4:53 AM46 °FClear.No wind42%30.25 "Hg10 mi
3:53 AM44 °FClear.No wind53%30.27 "Hg10 mi
2:53 AM45 °FClear.No wind51%30.29 "Hg10 mi
1:53 AM46 °FClear.No wind54%30.29 "Hg10 mi
12:53 AM48 °FClear.No wind52%30.29 "Hg10 mi
11:53 PM
Dec 27
50 °FClear.No wind50%30.31 "Hg10 mi
10:53 PM50 °FClear.No wind46%30.32 "Hg10 mi
9:53 PM51 °FClear.No wind50%30.33 "Hg10 mi
8:53 PM54 °FClear.No wind45%30.32 "Hg10 mi
7:53 PM54 °FClear.No wind51%30.32 "Hg10 mi
6:53 PM56 °FClear.No wind46%30.32 "Hg10 mi
5:53 PM57 °FClear.No wind44%30.32 "Hg10 mi
4:53 PM59 °FClear.5 mph39%30.29 "Hg10 mi
3:53 PM61 °FSunny.8 mph32%30.29 "Hg10 mi
Weather by CustomWeather, © 2014

See weather overviewHow to use our weather pages